[[{"header":{"parameterUnit":"m.s-1","parameterCategory":1,"la1":30.2991,"la2":30.254,"lo1":-89.0895,"lo2":-89.0444,"dy":0.0017,"dx":0.0017,"nx":28,"ny":28,"refTime":"2026-02-02T03:00:00:Z","depth":0,"parameterNumber":2,"parameterNumberName":"U-component_of_WINDS"},"data":[0,0,0,0,0,0,0,0,0,0,0,0,0,0,0,0,0,0,0,0,0,0,0,0,0,0,0,0,0,0,0,0,0,0,0,0,0,0,0,0,0,0,0,0,0,0,0,0,0,0,0,0,0,0,0,0,0,0,2.4355,2.4356,0,2.4429,2.443,2.4431,2.4383,2.4381,2.4379,2.4377,2.4452,2.4456,2.446,0,0,0,0,0,0,0,0,0,0,0,0,0,2.4172,2.4176,2.4355,2.4356,2.4357,2.4429,2.443,2.4431,2.4384,2.4381,2.4378,2.4376,2.445,2.4455,2.446,0,0,0,0,0,0,0,0,0,0,0,0,0,2.4249,2.4177,2.4355,2.4342,2.4342,2.4429,2.443,2.4431,2.4384,2.4381,2.4378,2.4374,2.4449,2.4455,2.4461,2.4565,0,0,2.4479,2.4482,0,0,0,0,0,0,0,0,2.4245,2.4256,2.4343,2.4343,2.4343,2.4394,2.4393,2.4476,2.4385,2.4368,2.4377,2.4373,2.4435,2.4442,2.4463,2.4568,2.4572,2.448,2.4484,2.4486,2.4488,0,0,0,0,0,0,0,2.424,2.4253,2.4384,2.4344,2.4344,2.4332,2.434,2.4409,2.4419,2.4369,2.4366,2.4375,2.4434,2.4458,2.4465,2.4573,2.448,2.4485,2.4489,2.4491,2.4767,2.4771,0,0,0,0,0,0,2.4236,2.4249,2.4382,2.4387,2.4285,2.4338,2.4347,2.4381,2.4418,2.4421,2.4378,2.4373,2.4449,2.4458,2.4467,2.4591,2.4486,2.4492,2.4495,2.4763,2.4768,2.4772,0,0,0,0,0,0,2.4232,2.4248,2.4379,2.4317,2.4333,2.4345,2.4384,2.4384,2.4407,2.4425,2.4427,2.44,2.4446,2.4459,2.4541,2.4593,2.4495,2.45,2.4759,2.4765,2.477,2.484,0,0,0,0,0,0,2.4227,2.4247,2.4287,2.4318,2.4336,2.4452,2.4387,2.4388,2.4418,2.4411,2.4446,2.4448,2.4445,2.4532,2.4547,2.46,2.4505,2.4754,2.4762,2.4768,2.4833,2.4848,2.486,0,0,0,0,0,2.422,2.4303,2.4289,2.4305,2.4386,2.4455,2.4465,2.446,2.4422,2.4462,2.4474,2.4447,2.4585,2.4541,2.4557,2.4613,2.4751,2.476,2.4768,2.4828,2.4845,2.4859,0,0,0,0,0,0,2.4277,2.4307,2.4291,2.4387,2.4419,2.4447,2.4497,2.4478,2.4521,2.4514,2.4505,2.4513,2.4599,2.4614,2.4564,2.4715,2.4662,2.4674,2.4702,2.4719,2.4732,2.4726,2.451,0,0,0,0,0,2.4301,2.4355,2.4378,2.446,2.4477,2.4484,2.4514,2.4507,2.454,2.4553,2.4571,2.4603,2.4654,2.4687,2.4735,2.4836,2.4842,2.4882,2.4895,2.4906,2.4916,2.497,2.4988,2.4799,2.4799,2.4799,0,0,2.435,2.4373,2.4408,2.4472,2.4496,2.4551,2.4496,2.4557,2.4598,2.4562,2.4641,2.4656,2.4691,2.4783,2.4825,2.4799,2.497,2.4916,2.4925,2.4929,2.4981,2.4999,2.5015,2.4805,2.4803,2.4803,0,0,2.4468,2.4491,2.4562,2.4588,2.4625,2.4629,2.4646,2.4678,2.4686,2.4765,2.4739,2.4788,2.4876,2.4902,2.4927,2.5057,2.5034,2.5072,2.5141,2.5194,2.5209,2.5222,2.5268,2.5284,2.5083,2.5083,2.5083,0,2.4525,2.4608,2.4601,2.4664,2.4693,2.4664,2.4735,2.476,2.4811,2.4832,2.4802,2.4911,2.4933,2.5031,2.5063,2.5084,2.5103,2.5068,2.5207,2.522,2.5233,2.5276,2.5293,2.5087,2.5087,2.5086,2.5086,0,2.4675,2.4733,2.4786,2.4836,2.4871,2.4938,2.4942,2.4978,2.4969,2.4976,2.5058,2.5083,2.5135,2.5158,2.5149,2.5256,2.5238,2.5208,2.5154,2.5255,2.5296,2.5312,2.5093,2.5092,2.5091,2.5089,0,0,2.483,2.4876,2.4895,2.4918,2.4957,2.5002,2.5068,2.5119,2.5151,2.5187,2.5242,2.5317,2.529,2.5319,2.5312,2.5359,2.546,2.5324,2.5324,2.5347,2.5578,2.56,2.5619,2.5446,2.5449,2.5451,2.5575,0,2.495,2.5065,2.5061,2.5169,2.5222,2.5195,2.5253,2.5283,2.5293,2.534,2.535,2.5403,2.5363,2.538,2.5426,2.5438,2.5506,2.5429,2.5496,2.5499,2.5487,2.564,2.5663,2.5779,2.5591,2.5593,2.5595,0,2.5105,2.5147,2.5259,2.5291,2.5313,2.5365,2.5412,2.5457,2.5491,2.5495,2.5528,2.5514,2.5581,2.5527,2.5619,2.5567,2.5594,2.5604,2.5609,2.5614,2.5552,2.5649,2.5815,2.5832,2.562,2.5618,2.5617,0,2.5206,2.529,2.5369,2.5389,2.5428,2.5465,2.5483,2.5514,2.5545,2.5586,2.5607,2.5655,2.5682,2.572,2.572,2.568,2.5813,2.5759,2.5818,2.5818,2.5846,2.5844,2.6018,2.5865,2.5865,2.5865,2.5864,0,2.5339,2.5409,2.5414,2.5463,2.554,2.5536,2.5613,2.5627,2.5655,2.5705,2.5686,2.5733,2.5731,2.578,2.5781,2.5857,2.5869,2.5873,2.5873,2.5875,2.5874,2.5892,2.5883,2.5869,2.5868,2.5867,2.5867,0,2.5465,2.5471,2.5555,2.5585,2.5594,2.565,2.5676,2.5722,2.573,2.5794,2.5809,2.5822,2.5878,2.5882,2.5947,2.5948,2.604,2.6031,2.6028,2.6026,2.6085,2.6079,2.6276,2.6301,2.6133,2.6134,2.6136,0,2.5549,2.5602,2.5639,2.5671,2.5691,2.5744,2.5776,2.5774,2.5808,2.5851,2.5892,2.5946,2.5989,2.6081,2.6095,2.6145,2.6137,2.6202,2.6144,2.6144,2.6137,2.6133,2.6138,2.6213,2.6215,2.6216,2.6218,0,2.5698,2.5699,2.5746,2.5795,2.5833,2.5871,2.5907,2.5935,2.5937,2.5976,2.6034,2.6067,2.6134,2.6188,2.6237,2.6255,2.6237,2.6236,2.6252,2.6255,2.6251,2.6253,2.6058,2.6231,2.623,2.6229,2.6228,2.6228,2.5805,2.5851,2.5884,2.5937,2.5964,2.5998,2.6042,2.6056,2.6104,2.6158,2.6154,2.6217,2.6251,2.6314,2.6337,2.6386,2.6364,2.6388,2.6393,2.6399,2.6405,2.6244,2.6395,2.6395,2.6395,2.6394,2.6394,0,2.5953,2.5973,2.6022,2.6072,2.6114,2.6094,2.6132,2.6169,2.6225,2.6257,2.6301,2.6367,2.6419,2.6439,2.649,2.6526,2.6519,2.654,2.6536,2.6541,2.6422,2.6403,2.6545,2.6544,2.6544,2.6544,2.6544,2.6544,2.6034,2.6111,2.6116,2.6206,2.6225,2.6287,2.6311,2.6342,2.6368,2.6443,2.6487,2.6499,2.6527,2.658,2.6627,2.6632,2.6651,2.6675,2.6676,2.6565,2.6549,2.6535,2.6516,2.668,2.668,2.6791,2.6792,2.6792]},{"header":{"parameterUnit":"m.s-1","parameterCategory":1,"la1":30.2991,"la2":30.254,"lo1":-89.0895,"lo2":-89.0444,"dy":0.0017,"dx":0.0017,"nx":28,"ny":28,"refTime":"2026-02-02T03:00:00:Z","depth":0,"parameterNumber":3,"parameterNumberName":"V-component_of_WINDS"},"data":[0,0,0,0,0,0,0,0,0,0,0,0,0,0,0,0,0,0,0,0,0,0,0,0,0,0,0,0,0,0,0,0,0,0,0,0,0,0,0,0,0,0,0,0,0,0,0,0,0,0,0,0,0,0,0,0,0,0,-2.0864,-2.0866,0,-2.1021,-2.1022,-2.1024,-2.1053,-2.1051,-2.105,-2.1049,-2.1207,-2.1212,-2.1218,0,0,0,0,0,0,0,0,0,0,0,0,0,-2.0588,-2.0593,-2.0864,-2.0866,-2.0868,-2.102,-2.1022,-2.1024,-2.1053,-2.1051,-2.105,-2.1048,-2.1205,-2.1212,-2.1218,0,0,0,0,0,0,0,0,0,0,0,0,0,-2.0722,-2.0594,-2.0864,-2.09,-2.0905,-2.102,-2.1022,-2.1025,-2.1053,-2.1051,-2.1049,-2.1048,-2.1203,-2.1211,-2.1219,-2.1307,0,0,-2.1244,-2.1247,0,0,0,0,0,0,0,0,-2.0715,-2.0732,-2.0893,-2.0898,-2.0904,-2.1015,-2.0983,-2.112,-2.1054,-2.0997,-2.1049,-2.1047,-2.1145,-2.1158,-2.1191,-2.1315,-2.1321,-2.1245,-2.125,-2.1253,-2.1255,0,0,0,0,0,0,0,-2.0705,-2.0726,-2.0926,-2.0895,-2.0902,-2.0909,-2.0926,-2.1009,-2.108,-2.1002,-2.1004,-2.1023,-2.1147,-2.1183,-2.1195,-2.1324,-2.1244,-2.1252,-2.1257,-2.126,-2.1527,-2.1529,0,0,0,0,0,0,-2.069,-2.0718,-2.0921,-2.0931,-2.0803,-2.0915,-2.0934,-2.0981,-2.1079,-2.1092,-2.1024,-2.1023,-2.117,-2.1185,-2.1201,-2.1309,-2.1253,-2.1261,-2.1265,-2.1525,-2.1527,-2.153,0,0,0,0,0,0,-2.0684,-2.0708,-2.0915,-2.0825,-2.0852,-2.0922,-2.0975,-2.0985,-2.1021,-2.1096,-2.1108,-2.1048,-2.1169,-2.1189,-2.1281,-2.1315,-2.1264,-2.1272,-2.1522,-2.1525,-2.1529,-2.1528,0,0,0,0,0,0,-2.0676,-2.0705,-2.074,-2.0826,-2.0857,-2.0992,-2.0977,-2.099,-2.1035,-2.1036,-2.1121,-2.1133,-2.1169,-2.1268,-2.1289,-2.1326,-2.1278,-2.1519,-2.1523,-2.1527,-2.1525,-2.1531,-2.1536,0,0,0,0,0,-2.0666,-2.0733,-2.0741,-2.0766,-2.0901,-2.0994,-2.1012,-2.1052,-2.1038,-2.1073,-2.1121,-2.1131,-2.1309,-2.1277,-2.13,-2.134,-2.1517,-2.1522,-2.1527,-2.1523,-2.153,-2.1536,0,0,0,0,0,0,-2.0649,-2.0745,-2.0755,-2.0853,-2.0915,-2.0999,-2.1044,-2.1059,-2.1126,-2.1124,-2.1171,-2.119,-2.1278,-2.1319,-2.1282,-2.143,-2.1412,-2.1422,-2.14,-2.1408,-2.1413,-2.1401,-2.1285,0,0,0,0,0,-2.0657,-2.0725,-2.0805,-2.0883,-2.0914,-2.0974,-2.1016,-2.1042,-2.1108,-2.1134,-2.1189,-2.1252,-2.1322,-2.1368,-2.1436,-2.1532,-2.155,-2.157,-2.1576,-2.158,-2.1587,-2.164,-2.1649,-2.1546,-2.1546,-2.1546,0,0,-2.0673,-2.0734,-2.0774,-2.0881,-2.0933,-2.1001,-2.0996,-2.1069,-2.112,-2.1145,-2.1235,-2.1277,-2.1351,-2.1444,-2.1488,-2.1481,-2.162,-2.1586,-2.1589,-2.1594,-2.1646,-2.1656,-2.1664,-2.155,-2.1549,-2.1549,0,0,-2.0738,-2.0791,-2.0862,-2.0914,-2.0992,-2.1032,-2.1048,-2.1131,-2.1159,-2.125,-2.1271,-2.1332,-2.1452,-2.1504,-2.1545,-2.163,-2.1641,-2.1651,-2.1678,-2.1729,-2.1737,-2.1745,-2.1774,-2.1784,-2.1659,-2.1659,-2.1659,0,-2.0748,-2.0853,-2.0896,-2.0969,-2.1015,-2.1042,-2.1113,-2.1161,-2.1257,-2.1288,-2.1279,-2.143,-2.1482,-2.1587,-2.1608,-2.1641,-2.1661,-2.1641,-2.1733,-2.1741,-2.1748,-2.1776,-2.1787,-2.1659,-2.1659,-2.1659,-2.1659,0,-2.0861,-2.0934,-2.0981,-2.1074,-2.1126,-2.1197,-2.125,-2.1298,-2.1319,-2.1359,-2.1451,-2.1514,-2.1595,-2.1623,-2.1644,-2.1731,-2.1724,-2.1723,-2.1705,-2.1758,-2.1785,-2.1796,-2.166,-2.166,-2.166,-2.166,0,0,-2.0919,-2.1035,-2.1052,-2.1094,-2.1183,-2.1239,-2.1311,-2.1392,-2.1431,-2.1497,-2.1558,-2.1659,-2.1659,-2.1706,-2.1734,-2.1779,-2.184,-2.1772,-2.1775,-2.1781,-2.1939,-2.1938,-2.195,-2.1849,-2.1851,-2.1853,-2.1932,0,-2.0994,-2.1124,-2.1165,-2.1274,-2.1341,-2.1367,-2.143,-2.1491,-2.153,-2.1592,-2.1636,-2.1706,-2.1701,-2.173,-2.1776,-2.1823,-2.1872,-2.1818,-2.1905,-2.1908,-2.1884,-2.1964,-2.1964,-2.2035,-2.1943,-2.1945,-2.1946,0,-2.1098,-2.1166,-2.1281,-2.136,-2.139,-2.1446,-2.1523,-2.1582,-2.1651,-2.1677,-2.173,-2.1754,-2.183,-2.1809,-2.1913,-2.1875,-2.1914,-2.1942,-2.1946,-2.1955,-2.1929,-2.1974,-2.2059,-2.2069,-2.1964,-2.1962,-2.1961,0,-2.1127,-2.1247,-2.1331,-2.1367,-2.1462,-2.1501,-2.1542,-2.1609,-2.1655,-2.1722,-2.1752,-2.1827,-2.1867,-2.1925,-2.1968,-2.1949,-2.2068,-2.2051,-2.2091,-2.209,-2.2114,-2.2111,-2.2205,-2.214,-2.214,-2.214,-2.214,0,-2.1205,-2.1274,-2.1346,-2.1397,-2.1475,-2.1522,-2.1598,-2.164,-2.17,-2.176,-2.1788,-2.1844,-2.1898,-2.1961,-2.1996,-2.2076,-2.2095,-2.2117,-2.2125,-2.2114,-2.2111,-2.2138,-2.2134,-2.2143,-2.2142,-2.2142,-2.2141,0,-2.125,-2.1301,-2.1394,-2.1477,-2.15,-2.1553,-2.1624,-2.1675,-2.1715,-2.1791,-2.1811,-2.1875,-2.195,-2.2,-2.2096,-2.2119,-2.2207,-2.2214,-2.2183,-2.2187,-2.2224,-2.2219,-2.2338,-2.2355,-2.2279,-2.228,-2.2281,0,-2.1296,-2.135,-2.1438,-2.1481,-2.1522,-2.159,-2.1637,-2.1685,-2.1732,-2.1815,-2.1856,-2.1933,-2.1997,-2.2116,-2.217,-2.2244,-2.2252,-2.2289,-2.2263,-2.225,-2.2252,-2.2247,-2.2252,-2.2292,-2.2293,-2.2294,-2.2294,0,-2.1371,-2.1394,-2.146,-2.1536,-2.1591,-2.1653,-2.1714,-2.1747,-2.1806,-2.1857,-2.1935,-2.1985,-2.2083,-2.2159,-2.2237,-2.2279,-2.2296,-2.2302,-2.2315,-2.2303,-2.2282,-2.2293,-2.2193,-2.2298,-2.2298,-2.2298,-2.2297,-2.2297,-2.1418,-2.1466,-2.1536,-2.1609,-2.1661,-2.1718,-2.1769,-2.1817,-2.1883,-2.1966,-2.1991,-2.2071,-2.2139,-2.2246,-2.2289,-2.2352,-2.2348,-2.2367,-2.2372,-2.2375,-2.2375,-2.2273,-2.2367,-2.2367,-2.2367,-2.2367,-2.2367,0,-2.1494,-2.154,-2.1607,-2.1692,-2.175,-2.1762,-2.183,-2.1877,-2.1948,-2.201,-2.2072,-2.2161,-2.2235,-2.2295,-2.2371,-2.241,-2.242,-2.2428,-2.2425,-2.2434,-2.2375,-2.2356,-2.2419,-2.2419,-2.2419,-2.2419,-2.2419,-2.2419,-2.154,-2.1623,-2.1653,-2.1762,-2.1808,-2.1887,-2.1925,-2.1978,-2.2027,-2.2125,-2.2187,-2.2226,-2.2287,-2.2368,-2.2436,-2.2452,-2.2478,-2.2484,-2.2502,-2.2445,-2.2439,-2.2433,-2.2415,-2.249,-2.249,-2.2556,-2.2557,-2.2557]}]]